Location: Newark
(35.8833°N, 14.5000°E)
Time: 23:46:41
(UTC+00:00)

BEESAT - Pass Details

Date: 18 November 2019
Orbit: 700 x 709 km, 98.6° (Epoch: 07 December)

Event Time Altitude Azimuth Distance (km) Brightness Sun altitude
Rises 02:57:37 0° 141° (SE) 3,078 ? -32.9°
Reaches altitude 10° 03:00:04 10° 131° (SE) 2,162 ? -32.5°
Maximum altitude 03:04:11 31° 70° (ENE) 1,227 ? -31.6°
Enters shadow 03:06:15 22° 28° (NNE) 1,515 ? -31.2°
